Stations météo

réclame
Mon MeteoGroup
Schaffen, Belgique (6465): Température de l'air & dewpoint: 20.05.2020 22:00:00 - 26.05.2020 22:00:00 (CEST)Schaffen, Belgique (6465): Vitesse du vent & gusts: 20.05.2020 22:00:00 - 26.05.2020 22:00:00 (CEST)Schaffen, Belgique (6465): Direction du vent: 20.05.2020 22:00:00 - 26.05.2020 22:00:00 (CEST)Schaffen, Belgique (6465): reduced air pressure: 20.05.2020 22:00:00 - 26.05.2020 22:00:00 (CEST)Schaffen, Belgique (6465): visibility: 20.05.2020 22:00:00 - 26.05.2020 22:00:00 (CEST)
Date & Time tt [°C] td [°C] ff [km/h] ff [knt] fx [km/h] fx [knt] dd ppp [hPa] vv [km]
26.05.2020 22:00:00 19,2 7,5 4 2 11 6 N 1034,0 20
26.05.2020 21:00:00 20,6 7,6 7 4 18 10 NE 1033,7 20
26.05.2020 20:00:00 21,9 7,5 11 6 - - NNE 1033,4 20
26.05.2020 19:00:00 22,5 7,6 14 8 25 14 NE 1033,4 20
26.05.2020 18:00:00 24,4 8,2 11 6 22 12 N 1033,4 20
26.05.2020 17:00:00 23,9 7,8 11 6 - - NNE 1033,7 20
26.05.2020 16:00:00 23,5 8,3 11 6 22 12 NNE 1034,2 20
26.05.2020 15:00:00 22,5 8,4 11 6 25 14 NNE 1034,5 20
26.05.2020 14:00:00 23,2 9,0 11 6 - - NE 1034,9 20
26.05.2020 13:00:00 21,4 8,8 14 8 25 14 N 1035,2 20
26.05.2020 12:00:00 21,2 8,5 11 6 22 12 N 1035,5 20
26.05.2020 11:00:00 18,9 8,7 4 2 - - N 1035,7 20
26.05.2020 10:00:00 17,2 9,3 4 2 11 6 N 1035,9 10
26.05.2020 09:00:00 15,6 10,0 4 2 4 2 N 1035,7 10
26.05.2020 08:00:00 12,5 10,1 4 2 - - N 1035,7 8
26.05.2020 07:00:00 10,5 9,3 4 2 4 2 N 1035,5 8
26.05.2020 06:00:00 10,6 9,2 4 2 4 2 N 1035,2 13
26.05.2020 05:00:00 11,1 9,2 4 2 - - N 1035,0 17
26.05.2020 04:00:00 11,6 9,1 4 2 7 4 N 1035,0 19
26.05.2020 03:00:00 12,6 9,4 4 2 7 4 N 1034,9 20
26.05.2020 02:00:00 12,9 9,4 4 2 - - N 1034,9 20
26.05.2020 01:00:00 13,0 8,8 7 4 11 6 N 1034,9 20
26.05.2020 00:00:00 14,1 8,9 7 4 14 8 N 1034,7 20
25.05.2020 23:00:00 15,2 8,9 11 6 - - N 1034,7 20
25.05.2020 22:00:00 16,8 9,0 14 8 22 12 N 1034,4 20
25.05.2020 21:00:00 18,6 8,5 18 10 25 14 N 1033,9 20
25.05.2020 20:00:00 20,3 7,8 14 8 - - N 1033,4 20
25.05.2020 19:00:00 21,2 7,6 18 10 29 16 N 1033,2 20
25.05.2020 18:00:00 21,6 7,6 18 10 25 14 N 1033,2 20
25.05.2020 17:00:00 21,6 7,8 14 8 - - N 1033,2 20
25.05.2020 16:00:00 21,7 7,6 11 6 29 16 N 1033,4 20
25.05.2020 15:00:00 21,6 8,5 18 10 36 19 N 1033,9 20
25.05.2020 14:00:00 20,2 8,4 11 6 - - NNW 1034,0 20
25.05.2020 13:00:00 19,2 8,6 14 8 25 14 N 1034,4 20
25.05.2020 12:00:00 19,2 9,5 14 8 25 14 NNW 1034,4 20
25.05.2020 11:00:00 17,5 8,7 18 10 - - N 1034,5 20
25.05.2020 10:00:00 17,4 9,1 11 6 22 12 NNW 1034,2 20
25.05.2020 09:00:00 15,8 10,4 7 4 14 8 WNW 1034,2 10
25.05.2020 08:00:00 14,4 11,1 7 4 - - WNW 1034,0 14
25.05.2020 07:00:00 13,1 10,9 7 4 14 8 WNW 1033,7 12
25.05.2020 06:00:00 12,8 10,6 11 6 14 8 W 1033,2 16
25.05.2020 05:00:00 13,2 10,5 11 6 - - W 1033,0 19
25.05.2020 04:00:00 13,1 10,6 7 4 11 6 W 1032,9 19
25.05.2020 03:00:00 13,3 10,6 4 2 7 4 N 1033,0 18
25.05.2020 02:00:00 13,1 10,6 4 2 - - N 1033,0 19
25.05.2020 01:00:00 14,0 10,6 7 4 11 6 W 1032,7 20
25.05.2020 00:00:00 13,6 10,4 4 2 11 6 N 1032,7 20
24.05.2020 23:00:00 14,0 10,4 4 2 - - N 1032,7 20
24.05.2020 22:00:00 14,1 10,3 4 2 14 8 N 1032,2 20
24.05.2020 21:00:00 14,6 10,2 7 4 18 10 WNW 1031,7 20
24.05.2020 20:00:00 15,0 10,9 7 4 - - WNW 1031,5 20
24.05.2020 19:00:00 14,8 10,5 4 2 14 8 N 1031,4 14
24.05.2020 18:00:00 15,0 10,2 11 6 22 12 W 1031,2 20
24.05.2020 17:00:00 15,5 9,1 11 6 - - WNW 1031,0 20
24.05.2020 16:00:00 15,9 9,1 14 8 22 12 WNW 1030,9 20
24.05.2020 15:00:00 15,6 9,0 18 10 32 18 WNW 1030,5 20
24.05.2020 14:00:00 15,8 8,4 18 10 - - WSW 1029,7 20
24.05.2020 13:00:00 15,1 8,3 22 12 32 18 W 1029,7 20
24.05.2020 12:00:00 16,3 8,7 18 10 32 18 WSW 1029,5 18
24.05.2020 11:00:00 14,3 7,8 22 12 - - WSW 1029,5 20
24.05.2020 10:00:00 14,0 7,5 18 10 29 16 WSW 1029,2 18
24.05.2020 09:00:00 13,1 7,5 18 10 32 18 WSW 1029,0 16
24.05.2020 08:00:00 11,8 7,9 14 8 - - WSW 1028,7 16
24.05.2020 07:00:00 10,1 7,9 7 4 18 10 SW 1028,2 13
24.05.2020 06:00:00 9,4 7,3 7 4 18 10 SW 1027,9 14
24.05.2020 05:00:00 9,8 7,3 11 6 - - WSW 1027,5 15
24.05.2020 04:00:00 10,4 7,2 11 6 25 14 WSW 1027,2 17
24.05.2020 03:00:00 10,8 6,8 14 8 25 14 WSW 1027,4 19
24.05.2020 02:00:00 11,5 6,1 14 8 - - WSW 1027,2 20
24.05.2020 01:00:00 12,2 5,2 14 8 25 14 WSW 1027,0 20
24.05.2020 00:00:00 12,8 4,3 11 6 29 16 WSW 1027,0 20
23.05.2020 23:00:00 13,6 3,6 14 8 - - WSW 1026,7 20
23.05.2020 22:00:00 14,4 3,5 14 8 40 21 W 1026,2 20
23.05.2020 21:00:00 15,7 2,9 25 14 50 27 W 1025,9 20
23.05.2020 20:00:00 16,7 2,2 18 10 - - W 1025,2 20
23.05.2020 19:00:00 17,3 1,9 25 14 43 23 W 1024,5 20
23.05.2020 18:00:00 18,6 2,0 25 14 50 27 WSW 1024,2 20
23.05.2020 17:00:00 18,2 3,4 29 16 - - W 1024,0 20
23.05.2020 16:00:00 19,4 3,8 25 14 50 27 WSW 1023,6 20
23.05.2020 15:00:00 18,5 3,9 25 14 43 23 WSW 1023,2 20
23.05.2020 14:00:00 17,6 3,3 22 12 - - W 1023,2 20
23.05.2020 13:00:00 17,0 4,6 22 12 32 18 W 1023,3 20
23.05.2020 12:00:00 15,5 5,7 18 10 36 19 WSW 1023,3 19
23.05.2020 11:00:00 14,5 7,8 18 10 - - WSW 1023,3 15
23.05.2020 10:00:00 13,8 6,0 18 10 32 18 WSW 1023,1 20
23.05.2020 09:00:00 13,6 5,9 14 8 36 19 WSW 1022,7 20
23.05.2020 08:00:00 13,6 6,4 14 8 - - W 1022,6 20
23.05.2020 07:00:00 13,1 5,3 7 4 18 10 SW 1021,7 20
23.05.2020 06:00:00 13,4 4,1 11 6 22 12 WSW 1021,6 20
23.05.2020 05:00:00 13,5 3,0 11 6 - - WSW 1021,0 20
23.05.2020 04:00:00 14,1 2,2 11 6 29 16 WSW 1021,2 20
23.05.2020 03:00:00 14,8 0,4 14 8 29 16 W 1020,7 20
23.05.2020 02:00:00 15,3 0,3 11 6 - - WSW 1020,7 20
23.05.2020 01:00:00 15,8 2,0 14 8 25 14 WSW 1020,7 20
23.05.2020 00:00:00 16,2 4,0 14 8 32 18 WSW 1020,5 20
22.05.2020 23:00:00 17,1 4,7 11 6 - - WSW 1020,6 20
22.05.2020 22:00:00 18,0 7,7 7 4 29 16 SW 1020,0 20
22.05.2020 21:00:00 18,2 10,7 11 6 29 16 WSW 1019,5 20
22.05.2020 20:00:00 18,6 11,4 14 8 - - WSW 1019,5 20
22.05.2020 19:00:00 18,7 12,0 14 8 32 18 W 1019,2 20
22.05.2020 18:00:00 17,8 12,5 22 12 36 19 W 1019,5 20
22.05.2020 17:00:00 18,0 15,0 22 12 - - WNW 1019,3 20
22.05.2020 16:00:00 20,7 12,1 22 12 36 19 W 1018,5 20
22.05.2020 15:00:00 24,2 11,0 25 14 36 19 W 1017,3 20
22.05.2020 14:00:00 26,2 11,8 18 10 - - WSW 1016,6 20
22.05.2020 13:00:00 25,0 12,7 14 8 29 16 SW 1016,5 20
22.05.2020 12:00:00 24,3 14,3 14 8 32 18 SSW 1016,5 20
22.05.2020 11:00:00 23,0 13,8 14 8 - - S 1016,7 20
22.05.2020 10:00:00 21,3 13,8 14 8 25 14 S 1016,6 20
22.05.2020 09:00:00 18,9 13,8 11 6 14 8 SSE 1017,0 20
22.05.2020 08:00:00 17,6 12,9 11 6 - - S 1017,2 20
22.05.2020 07:00:00 16,1 12,2 7 4 11 6 S 1017,3 19
22.05.2020 06:00:00 15,1 11,9 7 4 7 4 SSE 1017,3 19
22.05.2020 05:00:00 14,6 11,8 7 4 - - SSE 1017,6 19
22.05.2020 04:00:00 15,5 11,9 7 4 11 6 S 1017,7 20
22.05.2020 03:00:00 16,0 12,0 7 4 11 6 SSE 1018,2 20
22.05.2020 02:00:00 17,0 12,1 4 2 - - N 1018,6 20
22.05.2020 01:00:00 19,5 12,1 7 4 7 4 SSW 1018,8 20
22.05.2020 00:00:00 20,2 12,4 4 2 4 2 N 1019,1 20
21.05.2020 23:00:00 21,3 11,4 4 2 - - N 1019,2 20
21.05.2020 22:00:00 23,0 11,3 4 2 4 2 N 1019,1 20
21.05.2020 21:00:00 25,2 10,0 4 2 7 4 N 1018,7 20
21.05.2020 20:00:00 27,1 9,6 4 2 - - N 1018,8 20
21.05.2020 19:00:00 27,2 10,0 7 4 14 8 N 1018,8 20
21.05.2020 18:00:00 27,3 10,2 4 2 14 8 N 1019,1 20
21.05.2020 17:00:00 26,9 10,1 7 4 - - SSE 1019,3 20
21.05.2020 16:00:00 26,5 9,5 4 2 14 8 N 1019,8 20
21.05.2020 15:00:00 26,3 10,3 4 2 11 6 N 1020,2 20
21.05.2020 14:00:00 24,6 10,9 4 2 - - N 1020,7 20
21.05.2020 13:00:00 23,3 10,4 7 4 11 6 S 1021,0 19
21.05.2020 12:00:00 22,4 11,2 4 2 14 8 N 1021,2 17
21.05.2020 11:00:00 20,6 11,7 7 4 - - SSE 1021,2 18
21.05.2020 10:00:00 18,8 12,2 4 2 11 6 N 1021,3 14
21.05.2020 09:00:00 16,3 11,3 4 2 11 6 N 1021,5 13
21.05.2020 08:00:00 14,5 10,5 4 2 - - N 1021,5 12
21.05.2020 07:00:00 12,0 9,9 4 2 4 2 - 1021,5 7
21.05.2020 06:00:00 11,8 9,5 4 2 4 2 N 1021,2 10
21.05.2020 05:00:00 12,4 9,7 4 2 - - N 1021,3 13
21.05.2020 04:00:00 12,8 9,5 4 2 7 4 N 1021,7 16
21.05.2020 03:00:00 13,8 9,5 4 2 7 4 N 1021,8 20
21.05.2020 02:00:00 14,6 9,5 4 2 - - N 1022,2 20
21.05.2020 01:00:00 15,3 9,6 4 2 14 8 N 1022,5 20
21.05.2020 00:00:00 16,3 9,6 7 4 14 8 E 1022,5 20
20.05.2020 23:00:00 17,2 9,8 7 4 - - E 1022,5 20
20.05.2020 22:00:00 18,3 10,1 7 4 18 10 E 1022,0 20

tt = Température de l'air
td = dewpoint
ff = Vitesse du vent
fx = gusts
dd = Direction du vent
ppp = reduced air pressure
vv = visibility

stations d'obs. à proximité